Weather History for Monroe, MI

Change the Weather History Date:

Sunday, May 12, 2013

  Actual Average Record
Temperature  
Mean Temperature 44 °F -  
Max Temperature 51 °F 70 °F 92 °F (1979)
Min Temperature 37 °F 49 °F 33 °F (1946)
Degree Days  
Heating Degree Days 21    
Moisture  
Dew Point 31 °F    
Average Humidity 64    
Maximum Humidity 93    
Minimum Humidity 40    
Precipitation  
Precipitation 0.00 in - - ()
Sea Level Pressure  
Sea Level Pressure 29.97 in    
Wind  
Wind Speed 12 mph (West)    
Max Wind Speed 26 mph    
Max Gust Speed 33 mph    
Visibility 10 miles    
Events      
Averages and records for this station are not official NWS values.
T = Trace of Precipitation, MM = Missing Value Source: NWS Daily Summary

Daily Weather History Graph

Daily Weather History Graph

Search for Another Location

Airport:

Trip Planner

Search our weather history database for the weather conditions in past years. The results will help you decide how hot, cold, wet, or windy it might be!

Date:

Astronomy

May. 12, 2013 Rise Set
Actual Time 6:16 AM EDT 8:44 PM EDT
Civil Twilight 5:44 AM EDT 9:16 PM EDT
Nautical Twilight 5:05 AM EDT 9:55 PM EDT
Astronomical Twilight 4:21 AM EDT 10:39 PM EDT
Moon 8:09 AM EDT (5/12) 11:11 PM EDT (5/12)
Length of Visible Light 15h 31m
Length of Day
14h 28m
Waxing Crescent, 6% of the Moon is Illuminated
May 12
Waxing Crescent
May 18
First Quarter
May 25
Full
May 31
Last Quarter
Jun 8
New

Hourly Weather History & Observations

Time (EDT) Temp. Windchill Dew Point Humidity Pressure Visibility Wind Dir Wind Speed Gust Speed Precip Events Conditions
12:15 AM 39.2 °F 35.9 °F 35.6 °F 87% 29.91 in 10.0 mi WSW 4.6 mph - N/A   Clear
12:36 AM 39.2 °F 35.0 °F 35.6 °F 87% 29.91 in 10.0 mi SW 5.8 mph - N/A   Scattered Clouds
12:56 AM 39.2 °F 34.2 °F 35.6 °F 87% 29.91 in 10.0 mi SW 6.9 mph - N/A   Scattered Clouds
1:16 AM 39.2 °F 35.0 °F 35.6 °F 87% 29.92 in 10.0 mi SW 5.8 mph - N/A   Clear
1:36 AM 37.4 °F 32.1 °F 35.6 °F 93% 29.92 in 10.0 mi SW 6.9 mph - N/A   Clear
1:56 AM 37.4 °F 32.1 °F 35.6 °F 93% 29.92 in 10.0 mi SW 6.9 mph - N/A   Clear
2:16 AM 37.4 °F 32.8 °F 35.6 °F 93% 29.91 in 10.0 mi WSW 5.8 mph - N/A   Clear
2:36 AM 37.4 °F 32.8 °F 35.6 °F 93% 29.91 in 10.0 mi WSW 5.8 mph - N/A   Clear
2:51 AM 37.4 °F 32.1 °F 35.6 °F 93% 29.91 in 10.0 mi WSW 6.9 mph - N/A   Clear
3:11 AM 37.4 °F 32.1 °F 35.6 °F 93% 29.90 in 10.0 mi WSW 6.9 mph - N/A   Clear
3:31 AM 37.4 °F 31.4 °F 35.6 °F 93% 29.90 in 10.0 mi WSW 8.1 mph - N/A   Clear
3:52 AM 37.4 °F 32.1 °F 35.6 °F 93% 29.90 in 10.0 mi WSW 6.9 mph - N/A   Clear
4:12 AM 37.4 °F 31.4 °F 35.6 °F 93% 29.90 in 10.0 mi WSW 8.1 mph - N/A   Clear
4:32 AM 37.4 °F 31.4 °F 35.6 °F 93% 29.90 in 10.0 mi WSW 8.1 mph - N/A   Clear
4:52 AM 37.4 °F 30.8 °F 35.6 °F 93% 29.89 in 10.0 mi WSW 9.2 mph - N/A   Clear
5:32 AM 39.2 °F 32.0 °F 35.6 °F 87% 29.89 in 10.0 mi WSW 11.5 mph - N/A   Clear
5:52 AM 39.2 °F 31.2 °F 35.6 °F 87% 29.89 in 10.0 mi WSW 13.8 mph 18.4 mph N/A   Clear
6:12 AM 39.2 °F 33.0 °F 35.6 °F 87% 29.89 in 10.0 mi WSW 9.2 mph - N/A   Clear
6:32 AM 39.2 °F 33.6 °F 35.6 °F 87% 29.90 in 10.0 mi West 8.1 mph - N/A   Clear
6:53 AM 39.2 °F 32.0 °F 35.6 °F 87% 29.91 in 10.0 mi West 11.5 mph - N/A   Mostly Cloudy
7:13 AM 39.2 °F 30.8 °F 35.6 °F 87% 29.91 in 10.0 mi West 15.0 mph 19.6 mph N/A   Scattered Clouds
7:33 AM 41.0 °F 33.9 °F 35.6 °F 81% 29.91 in 10.0 mi West 12.7 mph 17.3 mph N/A   Mostly Cloudy
7:53 AM 41.0 °F 34.3 °F 33.8 °F 76% 29.92 in 10.0 mi West 11.5 mph - N/A   Overcast
8:13 AM 42.8 °F 35.1 °F 32.0 °F 66% 29.92 in 10.0 mi WNW 16.1 mph 20.7 mph N/A   Overcast
8:33 AM 42.8 °F 34.5 °F 33.8 °F 70% 29.92 in 10.0 mi West 18.4 mph 24.2 mph N/A   Overcast
8:53 AM 42.8 °F 34.8 °F 32.0 °F 66% 29.93 in 10.0 mi WNW 17.3 mph 24.2 mph N/A   Overcast
9:13 AM 42.8 °F 34.3 °F 32.0 °F 66% 29.94 in 10.0 mi WNW 19.6 mph 25.3 mph N/A   Overcast
9:33 AM 42.8 °F 34.3 °F 30.2 °F 61% 29.94 in 10.0 mi WNW 19.6 mph 26.5 mph N/A   Overcast
9:53 AM 44.6 °F 36.4 °F 30.2 °F 57% 29.95 in 10.0 mi WNW 20.7 mph 27.6 mph N/A   Overcast
10:14 AM 44.6 °F 35.3 °F 30.2 °F 57% 29.94 in 10.0 mi WNW 26.5 mph 32.2 mph N/A   Overcast
10:34 AM 44.6 °F 36.1 °F 30.2 °F 57% 29.95 in 10.0 mi WNW 21.9 mph 27.6 mph N/A   Overcast
10:54 AM 44.6 °F 36.6 °F 30.2 °F 57% 29.95 in 10.0 mi WNW 19.6 mph 25.3 mph N/A   Overcast
11:14 AM 44.6 °F 37.2 °F 32.0 °F 61% 29.96 in 10.0 mi NW 17.3 mph 23.0 mph N/A   Overcast
11:34 AM 46.4 °F 39.2 °F 30.2 °F 53% 29.97 in 10.0 mi WNW 18.4 mph 25.3 mph N/A   Overcast
11:54 AM 46.4 °F 39.0 °F 30.2 °F 53% 29.97 in 10.0 mi West 19.6 mph 28.8 mph N/A   Overcast
12:14 PM 46.4 °F 39.2 °F 30.2 °F 53% 29.97 in 10.0 mi West 18.4 mph 25.3 mph N/A   Overcast
12:34 PM 46.4 °F 39.5 °F 30.2 °F 53% 29.96 in 10.0 mi West 17.3 mph 25.3 mph N/A   Overcast
12:54 PM 48.2 °F - 30.2 °F 50% 29.97 in 10.0 mi West 17.3 mph 26.5 mph N/A   Overcast
1:14 PM 48.2 °F - 30.2 °F 50% 29.97 in 10.0 mi WNW 15.0 mph 27.6 mph N/A   Overcast
1:35 PM 48.2 °F - 30.2 °F 50% 29.97 in 10.0 mi West 19.6 mph 26.5 mph N/A   Overcast
1:55 PM 50.0 °F - 28.4 °F 43% 29.97 in 10.0 mi West 17.3 mph 26.5 mph N/A   Mostly Cloudy
2:15 PM 48.2 °F - 28.4 °F 46% 29.97 in 10.0 mi West 17.3 mph 25.3 mph N/A   Overcast
2:35 PM 51.8 °F - 30.2 °F 44% 29.97 in 10.0 mi WSW 18.4 mph - N/A   Overcast
2:55 PM 50.0 °F - 26.6 °F 40% 29.97 in 10.0 mi WNW 19.6 mph 27.6 mph N/A   Mostly Cloudy
3:15 PM 50.0 °F - 28.4 °F 43% 29.98 in 10.0 mi West 23.0 mph 31.1 mph N/A   Overcast
3:35 PM 50.0 °F - 28.4 °F 43% 29.98 in 10.0 mi WNW 21.9 mph 27.6 mph N/A   Overcast
3:55 PM 50.0 °F - 28.4 °F 43% 29.98 in 10.0 mi WNW 19.6 mph 26.5 mph N/A   Overcast
4:15 PM 51.8 °F - 28.4 °F 41% 29.98 in 10.0 mi West 23.0 mph 27.6 mph N/A   Overcast
4:35 PM 51.8 °F - 28.4 °F 41% 29.99 in 10.0 mi West 20.7 mph 29.9 mph N/A   Overcast
4:56 PM 50.0 °F - 26.6 °F 40% 29.99 in 10.0 mi West 25.3 mph 32.2 mph N/A   Mostly Cloudy
5:16 PM 48.2 °F - 28.4 °F 46% 30.00 in 10.0 mi WNW 24.2 mph 33.4 mph N/A   Overcast
5:36 PM 48.2 °F - 28.4 °F 46% 30.00 in 10.0 mi West 21.9 mph 26.5 mph N/A   Overcast
5:56 PM 48.2 °F - 26.6 °F 43% 30.01 in 10.0 mi West 21.9 mph 27.6 mph N/A   Overcast
6:16 PM 48.2 °F - 28.4 °F 46% 30.02 in 10.0 mi WNW 18.4 mph 29.9 mph N/A   Overcast
6:36 PM 46.4 °F 38.7 °F 26.6 °F 46% 30.02 in 10.0 mi WNW 20.7 mph 26.5 mph N/A   Overcast
6:56 PM 46.4 °F 39.5 °F 26.6 °F 46% 30.03 in 10.0 mi WNW 17.3 mph 28.8 mph N/A   Overcast
7:11 PM 46.4 °F 39.2 °F 26.6 °F 46% 30.03 in 10.0 mi WNW 18.4 mph 25.3 mph N/A   Overcast
7:31 PM 46.4 °F 40.7 °F 26.6 °F 46% 30.03 in 10.0 mi WNW 12.7 mph 23.0 mph N/A   Overcast
7:52 PM 46.4 °F 39.5 °F 26.6 °F 46% 30.04 in 10.0 mi WNW 17.3 mph 25.3 mph N/A   Overcast
8:12 PM 44.6 °F 37.4 °F 26.6 °F 49% 30.04 in 10.0 mi WNW 16.1 mph 23.0 mph N/A   Overcast
8:32 PM 44.6 °F 38.1 °F 24.8 °F 46% 30.05 in 10.0 mi WNW 13.8 mph 25.3 mph N/A   Overcast
8:52 PM 44.6 °F 38.1 °F 24.8 °F 46% 30.05 in 10.0 mi WNW 13.8 mph 25.3 mph N/A   Overcast
9:12 PM 44.6 °F 38.8 °F 24.8 °F 46% 30.06 in 10.0 mi WNW 11.5 mph - N/A   Scattered Clouds
9:32 PM 42.8 °F 36.6 °F 26.6 °F 53% 30.07 in 10.0 mi WNW 11.5 mph 18.4 mph N/A   Clear
9:52 PM 42.8 °F 37.5 °F 24.8 °F 49% 30.07 in 10.0 mi WNW 9.2 mph - N/A   Clear
10:12 PM 41.0 °F 38.0 °F 26.6 °F 57% 30.08 in 10.0 mi WNW 4.6 mph - N/A   Clear
10:32 PM 39.2 °F 35.9 °F 26.6 °F 61% 30.08 in 10.0 mi West 4.6 mph - N/A   Clear
10:53 PM 39.2 °F - 26.6 °F 61% 30.09 in 10.0 mi Calm Calm - N/A   Clear
11:13 PM 37.4 °F - 28.4 °F 70% 30.09 in 10.0 mi Calm Calm - N/A   Clear
11:33 PM 37.4 °F 34.9 °F 28.4 °F 70% 30.09 in 10.0 mi West 3.5 mph - N/A   Clear
11:53 PM 37.4 °F 34.9 °F 28.4 °F 70% 30.09 in 10.0 mi WSW 3.5 mph - N/A   Clear